Regional Weather Roundup
Issued by NWS

Home | Current Version | Previous Version | Text Only | Print | Product List | Glossary Off
Versions: 1 2 3 4 5 6 7 8 9 10 11 12 13 14 15 16 17 18 19 20 21 22 23 24 25 26 27 28 29 30 31 32 33 34 35 36 37 38 39 40 41 42 43 44 45 46 47 48 49 50

000
ASUS43 KFSD 101600
RWRSD

SOUTH DAKOTA HOURLY REGIONAL WEATHER ROUNDUP
NATIONAL WEATHER SERVICE ABERDEEN SD
1100 AM CDT THU JUL 10 2014

...SATELLITE DATA IS USED TO AUGMENT CLOUD COVER ABOVE 12000 FEET...

NOTE: "FAIR" INDICATES FEW OR NO CLOUDS BELOW 12,000 FEET WITH NO
SIGNIFICANT WEATHER AND/OR OBSTRUCTION TO VISIBILITY.

SDZ001>005-009-010-012>017-101700-
...NORTHWEST AND NORTH CENTRAL SOUTH DAKOTA...

CITY           SKY/WX    TMP DP  RH WIND       PRES   REMARKS
BUFFALO          N/A     66  61  84 E7        29.81F
FAITH            N/A     67  61  81 SW9       29.90R
MOBRIDGE       CLOUDY    69  62  78 SE15      29.81F
$$

SDZ012>016-024>037-041>051-057-063-101700-
...SOUTHWEST AND SOUTH CENTRAL SOUTH DAKOTA...

CITY           SKY/WX    TMP DP  RH WIND       PRES   REMARKS
RAPID CITY     MOSUNNY   74  64  71 SE10      29.88S
ELLSWORTH AFB  MOSUNNY   74  63  66 NE5       29.89R
CUSTER         SUNNY     75  55  49 W6        30.02S
PHILIP         CLOUDY    75  63  66 W7        29.88R
PINE RIDGE     PTSUNNY   76  62  62 S15       29.89R
PIERRE         PTSUNNY   75  62  64 S16G23    29.85F
WINNER         NOT AVBL
$$

SDZ004>011-016>023-039-040-101700-
...NORTHEAST SOUTH DAKOTA...

CITY           SKY/WX    TMP DP  RH WIND       PRES   REMARKS
ABERDEEN       CLOUDY    75  61  61 S14       29.91F
WATERTOWN      MOSUNNY   76  61  59 SE15G23   29.97F
BROOKINGS      NOT AVBL
SISSETON         N/A     74  62  66 S9        29.94F
$$

SDZ017-020-022-023-036>040-048>070-101700-
...SOUTHEAST SOUTH DAKOTA...

CITY           SKY/WX    TMP DP  RH WIND       PRES   REMARKS
SIOUX FALLS    MOSUNNY   77  63  61 S14       29.99F
YANKTON        SUNNY     77  64  65 S16       29.98F
MITCHELL       MOSUNNY   78  64  61 S13G20    29.93F
HURON          PTSUNNY   75  62  64 S14G20    29.91F
CHAMBERLAIN    SUNNY     76  64  67 S17       29.90F
$$


USA.gov is the U.S. government's official web portal to all federal, state and local government web resources and services.